Other Public Products
Issued by NWS Charleston, SC

Current Version | Previous Version | Graphics & Text | Print | Product List | Glossary On
Versions: 1 2 3 4 5 6 7 8 9 10 11 12 13 14 15 16 17 18 19 20 21 22 23 24 25 26 27 28 29 30 31 32 33 34 35 36 37 38 39 40 41 42 43 44 45 46 47 48 49 50
000 FPUS82 KCHS 232327 OPUCHS TEST...KCHS/KSAV Gateway Observations...TEST National Weather Service Charleston SC 600 PM EST THU NOV 23 2017 NOTE: "fair" indicates few or no clouds below 12,000 feet with no significant weather and/or obstructions to visibility. SCZ050-WAZ558-NCZ071-TXZ119-213-PAZ071-DCZ001-FLZ074-172-MI076- NYZ176-178-MAZ016-IL014-TNZ027-NJZ106-GAZ044-MD014-240000- ...Gateway Observations for Charleston International... CITY SKY/WX TMP DP RH WIND PRES REMARKS Chas Airport LGT RAIN 46 44 93 NE9 29.99F Seattle PTSUNNY 53 47 79 SW13G25 29.85R Charlotte PTCLDY 43 31 62 N5 30.03R Dallas DFW PTCLDY 66 30 26 SE7 30.03F Dallas Love PTCLDY 66 28 24 SE7 30.05F Philladelphia PTCLDY 40 19 43 W10 30.06R WCI 33 Wash National PTCLDY 42 21 43 W5 30.08S Baltimore PTCLDY 37 24 59 CALM 30.07R Miami CLOUDY 80 71 74 SW6G20 29.83R Detroit PTCLDY 36 24 62 SW8 29.97R WCI 30 Newark PTCLDY 40 20 44 SW9 30.02S WCI 34 Laguardia PTCLDY 43 20 39 W8 30.01S J F K PTCLDY 36 25 64 SW8 30.03S WCI 30 Boston Logan MOCLDY 41 15 35 W7 29.98S Ft. Lauderdale CLOUDY 75 72 90 SE3 29.82R Chicago O`Hare PTCLDY 42 25 50 W3 29.92R Chicago Midway CLEAR 42 27 55 W5 29.93R Houston Bush PTCLDY 64 35 34 NW3 30.08S Houston Hobby PTCLDY 63 34 33 NW5 30.07F Nashville CLEAR 48 17 29 CALM 30.04S Atlanta PTCLDY 56 40 55 E6 29.99S $$ GAZ044-118-TXZ119-213-NCZ071-DCZ001-MDZ014-506-PAZ021-071-NJZ106- NYZ176-178-MAZ106-OHZ011-021-055-MIZ076-KYZ091-ILZ014-INZ047- MNZ060-ONZ431-240000- ...Gateway Observations for Savannah International... CITY SKY/WX TMP DP RH WIND PRES REMARKS Savannah Arpt CLOUDY 49 48 97 N7 29.99S FOG Atlanta PTCLDY 56 40 55 E6 29.99S Charlotte PTCLDY 43 31 62 N5 30.03R Dallas DFW PTCLDY 66 30 26 SE7 30.03F Houston Bush PTCLDY 64 35 34 NW3 30.08S Wash National PTCLDY 42 21 43 W5 30.08S Wash Dulles PTCLDY 33 25 72 CALM 30.07S Baltimore PTCLDY 37 24 59 CALM 30.07R Philadelphia PTCLDY 40 19 43 W10 30.06R WCI 33 Newark PTCLDY 40 20 44 SW9 30.02S WCI 34 Laguardia PTCLDY 43 20 39 W8 30.01S J F K PTCLDY 36 25 64 SW8 30.03S WCI 30 Boston MOCLDY 41 15 35 W7 29.98S Pittsburg PTCLDY 38 21 50 SW5 30.00S WCI 34 Akron MOCLDY 36 22 56 SW10 29.99S WCI 28 Cleveland PTCLDY 38 24 57 S8 30.00F WCI 32 Cincinnati CLEAR 41 24 51 S5 30.02S Columbus MOCLDY 36 26 68 S6 30.03S WCI 31 Detroit PTCLDY 36 24 62 SW8 29.97R WCI 30 Chicago O`Hare PTCLDY 42 25 50 W3 29.92R Minneapolis PTCLDY 42 26 53 S8 29.78F Indianapolis CLEAR 40 20 44 S8 29.98F WCI 34 Toronto Canada CLOUDY 36 18 48 SW16 29.92R WCI 26 $$

USA.gov is the U.S. government's official web portal to all federal, state and local government web resources and services.